www.pogodaiklimat.ru

Погода и климат >> Архив погоды >> Лаос >> Attapeu


ПОГОДА в Attapeu

  • Прогноз погоды в Attapeu
  • Монитор погоды в Attapeu
  • Климат города

АРХИВ ПОГОДЫ в Attapeu

Время (UTC), дата Ветер
(напр.,м/с)
 
Видим.   Явления Облачность Т
(С)
Тd
(С)
f
(%)
Тe
(С)
Тes
(С)
Комфортность P
(гПа)
Po
(гПа)
Тmin
(С)
Tmax
(С)
R
(мм)
R24
(мм)
S
(см)
06 17.06 ЮЗ 1 10 км 8/5 600 м
[Cu med, cong Ac lent Ci sp]
+33.8 +24.9 60 +47 +56 опасность
перегрева
1003.6 993.2
09 17.06 Ю 1 10 км 9/6 600 м
[Cu Sc Ac As]
+33.5 +23.0 54 +44 +45 опасность
перегрева
1001.8 991.5
12 17.06 штиль 0 3000 м дымка {туман} 8/5 600 м
[Cu med, cong Ac lent Ci sp]
+31.0 +25.1 71 +45 +45 опасность
перегрева
1002.8 992.3 +33.8
00 18.06 штиль 0 6000 м слабая морось 10/8 600 м
[Cu Sc Ac As]
+25.5 +22.5 83 +33 +34 очень
душно
1005.8 995.1 +25.5
03 18.06 Ю 1 8000 м в посл. час дождь {туман} 10/8 600 м
[Cu Sc Ac As]
+25.8 +23.9 89 +35 +37 очень
душно
1006.5 995.8 11
06 18.06 Ю 1 10 км 10/8 600 м
[Cu Sc Ac As]
+27.5 +23.9 81 +38 +39 очень
душно
1004.9 994.3 11
09 18.06 штиль 0 10 км 9/6 600 м
[Cu Sc Ac As]
+29.0 +24.0 74 +40 +42 очень
душно
1003.8 993.2
12 18.06 штиль 0 3000 м дымка {туман} 10/8 600 м
[Cu Sc Ac As]
+27.9 +25.2 85 +40 +40 очень
душно
1003.8 993.2 +29.0 11
00 19.06 штиль 0 6000 м 10/8 600 м
[Cu Sc Ac As]
+23.9 +22.9 94 +32 +32 очень
душно
1006.3 995.5 +23.5 13
03 19.06 З 1 8000 м мгла {туман} 10/8 600 м
[Cu Sc Ac As]
+27.5 +23.9 81 +38 +39 очень
душно
1007.5 996.8
06 19.06 Ю 1 10 км 9/5 600 м
[Cu Sc Ac As]
+31.5 +25.9 72 +47 +52 опасность
перегрева
1005.4 994.7
09 19.06 Ю 1 15 км 8/5 600 м
[Cu med, cong Ac lent Ci sp]
+32.5 +25.5 67 +47 +50 опасность
перегрева
1003.5 993.0
12 19.06 Ю 1 3000 м дымка {туман} 5/4 600 м
[Cu med, cong Ci sp]
+29.0 +24.8 78 +41 +41 опасность
перегрева
1004.9 994.3 +32.5
00 20.06 В 1 6000 м дымка 10/8 600 м
[Cu Sc Ac As]
+26.5 +25.1 92 +38 +38 очень
душно
1006.7 996.0 +26.0
03 20.06 штиль 0 6000 м слабая морось {туман} 10/8 600 м
[Cu Sc]
+28.5 +25.1 82 +41 +44 опасность
перегрева
1006.7 996.1
06 20.06 штиль 0 6000 м в посл. час дождь {туман} 10/8 600 м
[Cu Sc Ac As]
+29.5 +25.3 78 +43 +45 опасность
перегрева
1004.7 994.2 3
09 20.06 Ю 1 6000 м мгла {дождь, туман} 10/8 600 м
[Cu Sc Ac As]
+25.6 +24.0 91 +35 +36 очень
душно
1003.8 993.1 2
12 20.06 штиль 0 3000 м дымка {туман} 10/8 600 м
[Cu Sc Ac As]
+26.0 +24.9 94 +37 +37 очень
душно
1004.4 993.7 +29.5 5
00 21.06 штиль 0 6000 м дымка 10/8 600 м
[Cu Sc Ac As]
+25.5 +24.8 96 +36 +36 очень
душно
1006.2 995.5 +25.5 1
03 21.06 Ю 1 8000 м мгла {туман} 9/6 600 м
[Cu Sc Ac As]
+29.5 +25.3 78 +43 +47 опасность
перегрева
1006.2 995.6
06 21.06 С 1 10 км 9/6 600 м
[Frnb Ac As]
+31.2 +26.0 74 +47 +51 опасность
перегрева
1004.4 993.9
12 21.06 штиль 0 2000 м в посл. час дождь {туман} 10/8 600 м
[Cu Sc Ac As]
+26.0 +24.6 92 +37 +37 очень
душно
1003.5 992.8 +32.5 2
00 22.06 Ю 1 6000 м дымка 10/8 600 м
[Cu Sc Ac As]
+25.5 +24.0 91 +35 +35 очень
душно
1005.8 995.1 +25.3
03 22.06 Ю 1 8000 м мгла {туман} 10/8 600 м
[Cu Sc Ac As]
+28.5 +25.0 81 +41 +42 опасность
перегрева
1008.6 997.9
06 22.06 З 1 15 км 8/5 600 м
[Cu med, cong Ac lent Ci sp]
+31.5 +24.4 66 +44 +52 опасность
перегрева
1006.0 995.3
09 22.06 Ю 1 15 км 9/6 600 м
[Cu Sc Ac As]
+32.5 +27.0 73 +51 +52 опасность
перегрева
1003.0 992.5
12 22.06 Ю 1 4000 м дымка {туман} 9/6 600 м
[Cu Sc Ac As]
+30.5 +26.3 78 +46 +46 опасность
перегрева
1003.4 992.9 +32.5
00 23.06 штиль 0 6000 м дымка 10/8 600 м
[Cu Sc Ac As]
+25.5 +24.8 96 +36 +36 очень
душно
1007.0 996.3 +25.3 20
06 23.06 СЗ 1 10 км 8/5 600 м
[Cu med, cong Ac lent Ci sp]
+30.6 +25.7 75 +45 +54 опасность
перегрева
1003.7 992.2
09 23.06 ЮЗ 1 15 км 8/5 600 м
[Cu med, cong Ac lent Ci sp]
+33.5 +25.2 62 +48 +50 опасность
перегрева
1001.1 990.7
12 23.06 Ю 1 4000 м дымка {туман} 10/8 600 м
[Cu Sc Ac As]
+27.5 +24.6 84 +39 +39 очень
душно
1002.4 991.8 +33.5
00 24.06 штиль 0 6000 м дымка 10/8 600 м
[Cu Sc Ac As]
+26.3 +25.3 94 +38 +38 очень
душно
1003.7 993.0 +26.3 20
03 24.06 СВ 1 8000 м в посл. час дождь {туман} 9/6 600 м
[Cu Sc Ac As]
+27.5 +26.1 92 +41 +45 опасность
перегрева
1004.6 994.0 2

 

Местоположение метеостанции Attapeu (Лаос): широта 14.80 долгота 106.83 высота над уровнем моря 105 м.

В архиве по умолчанию представлена погода в Attapeu за последнюю неделю. Архивные данные за месяц целиком и за предыдущие месяцы, начиная с января 2011 года, Вы можете получить, выбрав интересующий диапазон дат из раскрывающегося списка и нажав кнопку "Ввод!".

Внимание! Время в таблицах - всемирное. Для получения местного времени необходимо прибавить поправку, которая в Attapeu равна 7 ч.

Смотрите также архив погоды в соседних городах и на ближайших метеорологических станциях:

Погода в Sekong (Лаос) (61 км)
Погода в Saravane (Лаос) (107 км)
Погода в Pakse (Лаос) (118 км)
Погода в Pleiku City (Вьетнам) (156 км)
Погода в Hue (Вьетнам) (198 км)
Погода в Quang Ngai (Вьетнам) (213 км)
Погода в Da Nang (Вьетнам) (216 км)
Погода в Ubon Ratchathani (Таиланд) (217 км)
Погода в Banmethuot (Вьетнам) (272 км)
Погода в Si Saket Agromet (Таиланд) (278 км)

Пояснения к столбцам:

Ветер - указаны скорость ветра в м/с - средняя за 10 мин, порывы в срок и между сроками (в фигурных скобках) и направление, откуда дует ветер: С - северный, СВ - северо-восточный, В - восточный, ЮВ - юго-восточный, Ю - южный, ЮЗ - юго-западный, З - западный, СЗ - северо-западный.
Видимость - горизонтальная дальность видимости в метрах или километрах. При видимости от 1 до 10 км при отсутствии осадков обычно наблюдается дымка, при ухудшении видимости до 1 км и менее - туман. В сухую погоду видимость может ухудшаться дымом, пылью или мглою.
Явления - указаны атмосферные явления, наблюдавшиеся в срок или в последний час перед сроком; фигурными скобками обозначены явления, наблюдавшиеся между сроками (за 1-3 часа до срока); квадратными скобками обозначены град или гололедные отложения с указанием их диаметра в мм.
Облачность - указаны через наклонную черту общая и нижняя облачность в баллах и высота нижней границы облаков в метрах; квадратными скобками обозначены формы облаков: Ci - перистые, Cs - перисто-слоистые, Cc - перисто-кучевые, Ac - высококучевые, As - высокослоистые, Sc - слоисто-кучевые, Ns - слоисто-дождевые, Cu - кучевые, Cb - кучево-дождевые. Подробнее классификацию облаков см. в Атласе облаков (PDF).
T - Температура воздуха - температура, измеренная на высоте 2 м над землей.
Td - Температура точки росы - температура, при понижении до которой содержащийся в воздухе водяной пар достигнет насыщения.
f - Относительная влажность воздуха - влажноcть воздуха, измеренная на высоте 2 м над землей.
Te - Эффективная температура - температура, которую ощущает одетый по сезону человек в тени. Характеристика душности погоды. При расчете учитывается влияние влажности воздуха и скорости ветра на теплоощущения человека.
Tes - Эффективная температура на солнце - температура, которую ощущает человек, с поправкой на солнечный нагрев. Характеристика знойности погоды. Зависит от высоты солнца над горизонтом, облачности и скорости ветра. Ночью, в пасмурную погоду, а также при ветре 12 м/с и более поправка равна нулю.
P - Атмосферное давление - приведенное к уровню моря атмосферное давление.
Po - Атмосферное давление - измеренное на уровне метеостанции атмосферное давление.
Tmin - Минимальная температура - минимум температуры воздуха на высоте 2 м над землей.
Tmax - Максимальная температура - максимум температуры воздуха на высоте 2 м над землей.
R - Количество осадков - Количество выпавших осадков за период времени, мм. При наведении курсора мыши на число - период времени, за который выпало указанное количество осадков.
R24 - Количество осадков - Количество выпавших осадков за 24 часа, мм.
S - Снежный покров - Высота снежного покрова, см. При наведении курсора мыши на число - состояние снежного покрова и степень покрытия местности в баллах.